#timestamp,LO_Frequency,Hit,StdDev 
1514124015.2,286047002.3,P
1514124035.1,286046999.7,N
1514124036.0,286046999.7,N
1514124055.8,286047001.8,N
1514124075.6,286047001.6,N
1514124095.5,286047001.4,N
1514124115.3,286047003.9,Y
1514124135.2,286047002.4,P
1514124155.9,286047002.1,N
1514124175.7,286047001.9,N
1514124195.6,286047002.1,N
1514124215.4,286047004.4,Y
1514124235.2,286047002.3,P
1514124255.1,286046999.9,N
1514124256.0,286046999.9,N
1514124275.8,286047000.3,N
1514124295.7,286046999.9,N
1514124315.5,286047000.5,N
1514124335.3,286047001.1,N
1514124355.2,286047000.1,N
1514124375.0,286047000.6,N
1514124375.9,286047000.6,N
1514124395.7,286047001.1,N
1514124415.6,286046998.7,N
1514124435.4,286046999.7,N
1514124455.3,286046999.8,N
1514124475.1,286047001.8,N
1514124495.8,286047003.0,Y
1514124515.7,286047005.6,P
1514124535.5,286047005.9,N
1514124555.3,286047004.4,N
1514124575.2,286047001.0,N
1514124595.9,286046998.7,N
1514124615.7,286046998.6,N
1514124635.6,286047001.2,N
1514124655.4,286047001.6,N
1514124675.3,286047002.6,N
1514124695.1,286046999.8,N
1514124696.0,286046999.8,N
1514124715.8,286047002.5,N
1514124735.7,286047001.5,N
1514124755.5,286047001.5,N
1514124775.3,286046999.7,N
1514124795.2,286046998.1,N
1514124815.0,286047001.2,N
1514124815.9,286047001.2,N
1514124835.8,286046998.4,N
1514124855.6,286046999.1,N
1514124875.4,286046998.6,N
1514124895.3,286046999.0,N
1514124915.1,286047000.8,N
1514124935.9,286047000.9,N
1514124955.7,286047000.3,N
1514124975.5,286047001.8,N
1514124995.4,286047000.0,N
1514125015.2,286047000.3,N
1514125035.0,286047011.9,Y
1514125035.9,286047002.3,P
1514125055.8,286047000.0,N
1514125075.6,286047000.1,N
1514125095.5,286046998.5,N
1514125115.3,286047001.0,N
1514125135.1,286047001.1,N
1514125155.9,286047001.2,N
1514125175.7,286046998.6,N
1514125195.5,286046998.8,N
1514125215.4,286046998.8,N
1514125235.2,286046998.8,N
1514125255.1,286046999.4,N
1514125256.0,286046999.4,N
1514125275.8,286046999.1,N
1514125295.6,286046999.3,N
1514125315.5,286047000.3,N
1514125335.3,286046999.8,N
1514125355.1,286047002.6,N
1514125375.9,286047002.0,N
1514125395.7,286047000.2,N
1514125415.6,286047000.0,N
1514125435.4,286047000.0,N
1514125455.2,286046999.8,N
1514125475.1,286046999.7,N
1514125476.0,286046999.7,N
1514125495.8,286047000.0,N
1514125515.7,286047000.5,N
1514125535.5,286047002.4,N
1514125555.3,286046999.7,N
1514125575.2,286047002.3,N
1514125595.9,286047004.4,Y
1514125615.7,286047002.6,P
1514125635.6,286047002.8,N
1514125655.4,286047002.1,N
1514125675.3,286047001.9,N
1514125695.1,286047003.8,Y
1514125696.0,286047003.8,P
1514125715.8,286047002.6,N
1514125735.7,286047000.4,N
1514125755.5,286047002.7,N
1514125775.3,286047002.8,N
1514125795.2,286047001.4,N
1514125815.0,286047002.2,N
1514125815.9,286047002.2,N
1514125835.8,286047002.2,N
1514125855.6,286047001.3,N
1514125875.4,286047001.9,N
1514125895.3,286047000.2,N
1514125915.1,286047002.5,N
1514125935.9,286047000.1,N
1514125955.7,286047000.9,N
1514125975.5,286047000.4,N
1514125995.4,286046998.2,N
1514126015.2,286046996.6,N
1514126035.0,286046999.2,N
1514126035.9,286046999.2,N
1514126055.8,286046996.9,N
1514126075.6,286046997.0,N
1514126095.5,286046998.0,N
1514126115.3,286046997.6,N
1514126135.1,286046995.8,N
1514126155.9,286046993.3,Y
1514126175.7,286046994.0,P
1514126195.6,286046993.3,N
1514126215.4,286046996.3,N
1514126235.2,286046993.8,N
1514126255.1,286046993.8,N
1514126256.0,286046993.8,N
1514126275.8,286046996.0,N
1514126295.6,286046993.7,N
1514126315.5,286046994.4,N
1514126335.3,286046994.3,N
1514126355.2,286046992.7,Y
1514126375.9,286046997.1,P
1514126395.7,286046996.8,N
1514126415.6,286046997.0,P
1514126435.4,286046995.0,Y
1514126455.3,286046998.6,P
1514126475.1,286046998.9,N
1514126476.0,286046998.9,N
1514126495.8,286047000.7,N
1514126515.7,286047000.9,N
1514126535.5,286047000.4,N
1514126555.3,286047000.8,N
1514126575.2,286046998.3,N
1514126595.0,286047001.0,N
1514126595.9,286047001.0,N
1514126615.8,286046999.8,N
1514126635.6,286047000.3,N
1514126655.4,286046998.5,N
1514126675.3,286047000.6,N
1514126695.1,286046998.1,N
1514126715.9,286046998.8,N
1514126735.7,286046998.2,N
1514126755.5,286046998.6,N
1514126775.4,286046998.7,N
1514126795.2,286046996.5,N
1514126815.0,286046999.3,N
1514126815.9,286046999.3,N
1514126835.8,286046996.6,N
1514126855.6,286046997.0,N
1514126875.5,286046999.6,N
1514126895.3,286046996.8,N
1514126915.1,286046997.4,N
1514126935.9,286046996.6,N
1514126955.7,286046999.0,N
1514126975.5,286046998.7,N
1514126995.4,286046999.3,N
1514127015.2,286046999.5,N
1514127035.1,286046996.7,N
1514127036.0,286046996.7,N
1514127055.8,286046996.5,N
1514127075.6,286046999.2,N
1514127095.5,286046997.5,N
1514127115.3,286046997.6,N
1514127135.1,286046995.4,Y
1514127155.9,286046997.0,P
1514127175.7,286046996.8,P
1514127195.6,286046999.2,N
1514127215.4,286046996.6,Y
1514127235.2,286046998.8,P
1514127255.1,286047000.2,N
1514127256.0,286047000.2,N
1514127275.8,286047002.5,N
1514127295.7,286047002.1,N
1514127315.5,286047002.1,N
1514127335.7,286047002.5,N
1514127355.6,286047000.0,N
1514127375.4,286046999.3,N
1514127395.2,286046998.8,N
1514127415.1,286046998.3,N
1514127416.0,286046998.3,N
1514127435.8,286047000.3,N
1514127455.7,286047001.0,N
1514127475.5,286047000.2,N
1514127495.3,286047000.9,N
1514127515.2,286047000.9,N
1514127535.0,286046999.2,N
1514127535.9,286046999.2,N
1514127555.8,286046998.1,N
1514127575.6,286046999.3,N
1514127595.4,286046999.0,N
